Theta_e
358 357 358 358 357 357 356 357 358 358 357 357 356 353 353 355 353 353 354 355 357 357 355 355 354 356 356 358 359 360 359 359 360 359 356 356 359 361 361 358 359 359 359
360 359 356 357 358 359 359 358 358 358 358 358 357 356 355 356 356 357 353 352 355 357 356 354 354 354 354 357 358 359 359 359 361 359 361 360 361 362 361 360 360 360 360
363 361 358 358 360 361 360 360 360 359 358 357 356 356 358 358 356 357 356 355 357 355 356 355 353 355 356 356 356 357 359 360 360 362 361 360 360 362 363 362 361 362 360
364 362 358 363 362 362 359 362 360 357 354 354 352 355 357 358 358 358 358 357 357 357 355 357 355 355 356 357 356 356 357 359 360 361 360 361 361 362 362 362 362 361 361
363 359 356 358 362 361 360 359 359 356 351 350 353 357 354 358 357 355 356 359 359 359 359 358 356 358 357 358 357 357 358 359 358 360 360 361 360 362 361 361 361 360 361
359 359 356 360 362 360 358 359 356 353 350 346 349 349 356 356 357 360 359 360 362 361 360 360 359 357 356 357 357 357 358 358 358 359 359 359 359 359 360 360 360 359 359
360 360 361 362 361 356 356 356 352 348 344 345 349 347 349 352 349 347 349 350 351 355 358 358 358 358 359 356 356 356 358 358 360 357 359 358 359 359 359 358 358 358 358
354 358 361 359 356 351 349 347 348 345 343 343 344 345 338 339 341 347 351 352 354 353 351 353 354 354 357 357 354 356 357 359 358 359 359 359 358 358 358 357 357 357 358
359 359 360 356 352 349 345 346 344 344 341 341 343 342 337 335 338 342 345 341 340 339 342 346 350 353 354 357 357 356 354 354 357 359 361 360 360 358 358 358 357 357 357
359 362 357 354 351 346 347 346 345 343 344 340 342 340 342 343 338 331 340 338 338 337 340 341 343 344 346 346 346 350 352 352 353 356 358 358 357 358 359 358 358 357 357
362 356 354 353 349 346 349 348 347 344 340 338 337 339 341 339 340 335 331 335 341 335 335 336 336 337 339 341 340 341 344 349 355 354 356 356 355 356 357 357 358 357 357
357 354 352 351 351 349 349 348 346 344 341 339 336 337 337 335 335 334 332 337 337 336 331 331 330 331 333 336 336 337 339 340 343 349 352 353 353 354 355 356 357 355 354
351 351 352 350 349 352 351 348 345 343 340 337 337 333 334 333 335 335 333 334 336 334 333 332 329 326 327 331 333 335 336 337 339 343 350 350 351 351 352 353 353 354 357
352 354 352 352 352 353 351 346 342 338 338 335 335 334 332 333 333 333 332 331 328 332 331 328 331 324 325 327 330 332 334 336 336 336 338 341 344 346 348 350 349 351 354
350 353 352 350 352 351 347 345 339 337 336 334 332 332 331 330 330 330 331 332 328 324 324 324 321 325 325 326 329 332 332 333 334 333 332 333 334 336 337 339 340 342 344
351 351 349 351 351 347 345 342 337 335 333 329 328 329 328 327 326 326 327 331 330 328 322 322 319 323 327 326 328 331 329 330 330 331 331 330 331 331 332 331 331 332 332
348 345 347 347 345 342 341 338 335 332 328 327 326 325 323 324 320 322 324 326 326 328 321 317 320 324 326 327 327 328 327 329 327 328 327 328 328 327 327 327 327 327 328
352 348 348 343 337 332 335 335 330 326 325 324 322 323 322 320 322 322 319 322 322 324 321 317 322 320 323 325 326 326 323 322 323 324 325 325 326 325 325 326 325 324 324
351 350 346 337 333 330 331 330 326 324 324 322 323 322 322 323 322 321 322 319 319 319 320 318 317 322 323 323 324 326 326 326 323 326 324 324 323 324 323 323 324 322 321
345 345 344 344 338 331 326 323 323 323 322 322 323 324 325 325 324 324 323 324 324 320 321 318 318 319 322 324 324 321 320 323 322 322 325 319 320 319 319 322 324 324 321
344 345 343 341 335 328 322 318 319 320 322 323 325 326 328 327 325 324 322 324 325 321 319 319 318 320 319 319 320 321 320 322 324 325 322 322 321 322 324 323 322 321 323
344 343 341 340 335 331 324 320 321 322 324 324 325 326 324 321 322 320 321 319 322 324 323 321 320 319 323 322 321 321 320 319 315 325 322 319 323 320 321 323 324 321 321
343 343 341 339 335 335 324 323 323 322 322 324 322 321 319 318 321 322 318 316 316 315 320 325 323 323 322 323 323 323 323 321 319 321 321 315 319 318 321 322 322 320 320
341 341 340 339 336 332 323 322 323 322 321 321 322 323 323 324 324 324 324 324 325 326 325 323 325 326 326 325 325 324 323 322 321 319 324 313 318 318 321 322 324 323 319
342 340 339 337 335 330 322 322 322 319 319 321 324 325 325 325 318 318 325 323 326 327 319 316 318 319 319 319 319 321 315 313 311 313 318 316 315 315 317 319 321 319 317
341 338 336 335 330 331 321 320 323 320 320 319 324 325 319 324 319 319 322 324 324 325 327 327 325 323 321 320 315 320 316 311 310 310 318 314 314 315 312 318 321 321 322
Wind_Speed
3 3 3 4 4 4 4 6 4 5 6 6 6 6 9 7 5 4 5 7 11 10 7 9 11 11 11 13 14 14 14 16 14 16 15 15 15 14 13 11 11 11 10
3 4 4 4 4 4 4 4 4 4 5 5 6 6 9 8 7 8 5 5 9 9 10 8 10 12 13 14 15 15 16 16 15 17 15 16 16 15 14 14 14 14 12
5 4 4 4 3 3 5 4 4 4 4 3 6 7 6 7 6 7 6 4 5 9 10 19 16 19 17 17 16 16 17 16 17 17 16 16 15 16 15 15 14 13 13
5 4 4 3 2 3 3 2 2 2 3 3 5 5 3 4 6 6 6 5 4 5 7 14 22 23 19 19 18 17 18 19 18 19 18 18 17 16 16 15 14 13 12
5 3 3 2 3 2 2 1 1 3 3 4 5 1 3 2 3 3 5 5 5 4 4 5 12 19 21 21 21 20 21 20 20 20 20 19 18 17 17 16 14 14 13
4 2 2 3 2 2 2 2 3 2 3 4 4 2 2 2 2 0 1 0 1 2 3 4 4 5 13 21 22 23 23 23 20 21 20 20 19 18 18 17 16 16 15
4 3 2 2 1 1 3 2 2 3 3 4 3 4 6 7 7 5 3 4 4 5 6 5 4 5 5 8 15 22 25 27 24 21 22 21 20 19 18 17 16 16 16
3 3 2 1 1 3 3 3 2 1 2 5 3 1 4 5 5 7 6 7 8 6 6 7 7 7 4 3 8 16 18 28 26 23 21 21 20 19 18 17 17 17 17
2 4 4 3 3 2 2 3 3 2 1 3 6 3 2 1 4 5 8 8 8 7 6 7 8 9 9 8 8 10 11 10 18 22 21 20 19 19 20 19 19 18 18
5 5 5 5 4 3 4 4 4 4 2 1 0 3 3 3 2 4 4 6 8 8 8 7 8 9 10 9 14 20 9 6 5 10 18 17 16 17 19 20 20 19 19
6 6 6 6 6 3 4 4 4 4 4 3 2 1 2 2 2 1 3 4 4 6 6 7 7 7 10 10 10 15 21 18 8 10 10 13 14 12 15 18 19 19 20
6 7 7 5 4 4 4 4 5 6 5 4 4 3 2 2 2 1 1 2 2 4 6 7 8 8 8 8 12 16 20 19 16 11 13 13 13 13 12 13 17 21 19
7 9 9 7 5 4 4 4 5 5 5 4 5 4 3 4 3 2 2 1 2 2 1 4 6 7 7 8 10 17 20 20 19 17 2 5 8 9 11 11 14 18 24
7 11 9 9 7 6 5 5 4 4 5 5 6 5 4 4 3 3 2 2 3 2 2 6 4 8 7 7 10 11 10 19 19 20 19 13 9 5 7 9 11 13 22
5 7 11 9 8 7 6 6 4 5 4 4 5 5 3 3 4 3 3 2 3 2 2 5 4 8 7 7 10 8 9 15 17 18 18 18 16 15 14 12 11 11 7
9 9 8 13 8 7 7 5 5 5 5 4 4 5 3 3 4 3 3 2 1 1 3 3 5 6 7 6 8 8 8 9 16 15 14 14 14 14 14 13 13 13 13
9 10 9 9 12 10 8 6 5 5 5 6 5 6 6 4 4 4 4 3 4 3 4 4 4 6 6 7 7 6 7 6 7 12 12 11 11 11 11 12 11 11 11
11 11 11 10 9 9 8 8 6 6 6 7 7 7 6 5 6 5 6 7 6 5 3 4 4 4 5 5 5 6 6 6 6 9 7 9 8 8 7 7 9 10 10
12 12 12 9 8 9 9 7 9 9 8 8 7 6 6 6 6 6 7 6 6 5 5 4 4 3 3 6 5 4 5 5 4 2 4 6 6 6 6 6 5 6 6
12 11 13 13 12 10 8 8 9 12 10 8 8 7 7 6 6 6 6 5 5 5 4 4 4 4 3 3 3 6 6 5 5 5 3 3 2 1 1 1 2 2 3
11 13 13 12 11 8 7 7 5 7 10 10 8 7 6 7 6 5 4 5 4 4 4 4 4 3 4 5 6 5 6 6 4 3 6 6 5 4 1 6 4 4 3
14 14 13 14 13 9 13 14 12 10 10 10 9 7 7 6 7 8 7 3 4 3 3 3 3 4 4 4 5 6 6 7 7 4 7 8 5 7 5 4 2 6 8
15 13 13 14 14 11 17 16 14 10 10 10 9 7 6 6 5 4 4 2 1 2 4 4 4 4 5 5 6 8 6 7 8 8 7 9 6 7 7 6 7 9 10
14 13 13 14 13 11 19 18 15 12 10 10 9 7 6 5 3 2 3 2 2 1 1 3 4 5 5 5 5 6 8 8 9 6 3 9 7 7 7 8 8 6 6
13 13 14 14 12 13 17 16 13 11 10 10 8 6 5 4 3 2 4 4 3 1 4 2 4 6 7 7 6 6 7 9 9 9 5 7 10 9 8 8 8 4 6
14 12 13 13 11 14 15 16 12 10 11 8 7 6 6 4 1 4 5 5 5 4 3 2 2 0 1 3 1 4 6 8 8 8 6 8 10 9 8 6 5 9 8
Wind_Direction
248 258 278 293 297 300 290 285 280 284 279 267 261 251 254 251 249 247 264 260 254 237 210 224 238 262 254 239 233 226 209 215 213 212 204 204 208 202 200 203 198 196 207
247 262 278 289 276 285 272 278 281 281 285 281 277 252 250 247 237 249 254 254 262 246 211 202 263 263 262 262 248 238 230 219 212 216 211 213 208 206 205 204 206 206 202
238 252 265 281 272 273 260 263 257 240 264 268 274 278 266 245 239 238 250 258 247 232 229 204 204 247 250 255 252 248 243 229 223 216 218 216 211 207 206 208 207 213 208
242 238 271 281 315 259 250 250 329 301 304 287 298 271 278 227 230 244 258 263 257 270 213 205 207 215 227 247 258 252 247 243 228 223 217 215 212 212 211 213 209 214 212
201 226 281 286 288 243 275 269 326 332 325 322 308 277 266 244 226 233 256 269 284 261 272 220 227 222 219 228 239 248 259 242 233 228 224 218 212 212 212 213 216 221 218
168 253 262 275 296 277 304 304 325 0 351 336 328 42 15 159 199 102 16 318 295 333 318 307 282 246 244 238 238 241 246 255 233 228 228 226 219 216 218 216 214 218 221
178 208 228 271 300 353 40 9 328 9 26 360 252 106 82 85 75 56 52 57 49 44 33 18 341 315 309 293 262 251 246 244 239 228 226 226 221 218 219 219 217 221 225
213 194 215 219 127 99 61 34 352 285 41 22 328 225 146 136 95 60 64 67 60 60 52 42 21 10 355 289 274 271 267 264 226 233 225 222 223 217 214 216 216 217 225
193 193 188 185 137 125 99 68 50 29 344 68 34 332 218 220 145 54 66 71 59 53 44 35 28 23 17 6 342 307 282 246 232 228 223 221 220 220 216 214 217 217 221
186 177 162 168 157 137 118 105 82 55 356 352 256 61 46 353 271 159 97 90 74 55 43 40 34 32 25 27 17 13 346 293 292 251 237 228 226 234 224 219 218 218 220
162 156 158 156 144 147 117 109 100 69 69 32 8 329 50 105 74 308 163 153 119 60 49 40 34 28 25 20 26 21 19 13 283 266 232 215 221 242 241 238 231 228 226
158 162 153 147 142 130 120 95 80 66 52 48 40 32 354 337 24 356 190 194 316 82 50 42 30 21 16 12 24 16 19 21 9 313 244 227 234 234 248 261 247 233 241
169 166 159 147 149 145 135 116 105 92 68 55 28 38 38 41 10 16 324 144 246 96 58 67 36 20 13 7 14 2 25 18 23 16 318 227 229 235 246 263 274 271 241
180 163 151 145 148 153 137 118 109 96 98 86 61 38 31 33 32 24 2 301 192 171 101 359 31 15 10 8 12 9 31 24 35 40 48 47 30 337 288 276 281 259 263
156 179 147 138 141 138 137 131 115 110 95 80 86 82 63 55 36 26 15 335 318 245 71 56 8 22 6 13 19 30 40 39 43 42 41 46 50 47 45 45 44 46 36
152 158 151 134 140 135 133 132 126 109 101 93 92 87 64 56 69 49 32 38 38 281 140 32 49 15 15 37 42 39 46 63 43 39 40 39 40 40 37 41 47 52 54
152 148 151 140 138 141 137 131 117 119 119 115 105 94 84 62 63 68 58 56 64 36 98 98 55 43 39 26 31 33 39 27 64 42 43 43 39 40 38 28 29 39 49
169 159 158 155 145 131 135 147 146 132 133 124 112 106 95 84 74 64 68 54 52 43 80 98 52 62 46 14 11 19 12 34 21 53 37 38 43 50 45 45 36 30 29
171 171 159 147 142 137 140 152 147 140 136 131 122 113 102 93 78 70 58 62 67 65 69 71 66 35 25 15 4 18 354 357 344 107 135 102 39 44 57 51 51 48 38
167 172 162 158 157 151 137 152 160 143 140 128 115 111 101 91 91 88 80 73 68 77 80 76 70 51 13 30 354 2 11 4 350 354 23 101 289 317 360 3 83 65 37
167 169 160 155 154 154 149 137 141 132 142 125 120 120 103 89 83 69 70 71 75 81 72 64 54 32 22 5 5 346 326 341 352 317 335 333 350 339 323 206 240 212 290
161 159 159 159 163 167 149 157 158 154 143 133 134 118 115 108 85 73 73 59 50 60 61 29 37 23 355 330 347 335 327 342 336 89 324 320 319 314 318 308 30 278 272
159 162 168 170 167 164 159 162 168 153 142 138 135 137 136 111 106 94 79 76 166 254 263 310 330 336 322 350 325 318 342 323 320 326 305 311 311 308 314 303 217 241 262
164 166 174 173 167 164 162 161 162 150 138 141 145 153 139 138 104 11 351 347 326 302 206 255 282 306 302 316 309 305 311 303 285 292 330 302 332 308 322 306 270 252 273
168 170 171 170 172 159 162 160 163 151 147 153 161 167 157 155 132 286 299 326 320 77 143 228 276 294 295 297 301 301 326 321 322 327 320 303 320 312 306 300 307 146 258
168 169 166 167 165 164 168 159 167 168 167 167 170 177 197 224 247 279 298 310 320 32 360 41 55 116 299 32 342 330 323 316 321 320 54 317 316 321 318 326 315 313 300